Wind_Speed
3 4 4 4 5 6 5 6 4 3 3 3 3 3 2 2 2 2 2 3 2 2 2 3 2 2 2 3 4 4 5 5 5 5 6 7 7 8 8 8 9 9 9 9 9 9 10 10 9
4 3 4 5 5 5 6 5 4 2 3 3 2 2 3 2 2 2 3 3 3 3 3 3 3 3 3 4 4 5 5 6 6 6 7 7 7 7 8 9 9 9 9 9 10 10 10 10 10
3 3 4 5 5 5 6 5 5 3 3 3 3 3 3 3 3 3 3 4 4 4 4 4 4 4 4 4 5 5 6 6 7 6 6 6 7 6 7 8 8 9 9 9 10 10 10 10 11
3 3 5 5 5 5 6 5 4 3 3 4 4 3 3 3 4 4 4 5 5 5 5 5 5 5 5 5 5 6 6 7 6 6 6 6 7 7 6 6 7 8 8 9 10 11 11 11 11
3 4 5 5 5 5 5 4 3 3 4 4 4 4 4 4 4 5 5 5 6 6 6 6 6 6 6 6 6 7 7 7 7 6 7 6 6 6 7 7 7 8 9 10 11 11 11 12 12
4 4 4 4 4 4 4 4 3 3 3 4 4 4 5 5 5 5 4 5 5 6 6 7 6 7 7 7 7 7 7 7 7 8 8 7 6 6 6 7 8 8 9 10 11 11 11 11 12
4 4 4 4 4 4 4 3 3 3 3 4 4 4 5 4 4 4 4 5 5 5 6 6 7 7 7 7 7 7 7 7 8 8 8 8 7 7 7 7 8 9 9 9 9 9 10 10 11
4 4 4 4 3 3 2 2 2 2 3 3 3 3 4 3 4 4 4 5 6 6 6 6 6 6 7 7 7 7 7 7 7 7 8 8 8 8 7 7 8 9 9 10 10 9 10 10 10
4 4 3 3 2 2 2 2 1 2 2 3 3 3 4 3 4 4 4 4 4 4 5 5 5 5 5 6 6 6 7 7 7 7 8 8 8 8 8 8 8 9 9 9 10 10 10 11 11
3 3 3 2 2 2 2 2 1 1 1 2 2 2 2 2 3 3 3 3 3 3 3 4 4 5 5 5 6 6 7 7 7 7 8 8 8 8 9 9 9 9 10 10 10 10 11 12 12
4 3 2 2 2 1 1 1 1 1 1 1 1 1 2 2 2 3 3 3 2 2 3 4 5 5 5 5 6 6 7 7 7 7 7 8 9 9 8 8 8 9 10 10 10 11 11 12 11
3 2 2 2 2 1 1 1 1 1 2 2 2 2 2 2 2 3 3 3 3 3 4 4 5 5 5 5 5 5 6 6 7 7 7 8 8 9 8 8 8 8 9 10 10 10 11 12 12
3 3 3 2 2 2 2 2 1 2 2 3 2 2 3 3 3 4 4 3 3 3 4 4 4 5 5 5 5 5 5 6 7 7 7 7 7 8 8 8 8 9 9 9 8 9 10 11 11
4 4 3 3 3 2 3 2 2 2 3 3 3 3 3 3 4 4 3 4 4 5 4 5 5 5 5 5 5 5 5 6 6 7 7 7 7 7 8 8 9 9 9 9 8 8 9 10 10
3 4 4 4 3 3 4 3 3 3 3 3 4 4 3 4 4 4 4 4 5 6 5 6 5 5 5 5 5 6 6 6 7 7 6 6 7 7 7 8 9 9 8 8 8 8 9 10 11
5 5 5 4 4 4 4 4 4 4 4 4 4 5 5 5 5 5 5 5 5 5 5 6 5 5 6 5 6 6 7 7 7 7 7 6 6 7 7 8 8 8 8 9 9 8 10 10 10
6 5 5 5 5 4 5 5 4 4 4 4 5 5 6 5 6 6 6 5 6 6 6 6 6 6 6 6 7 7 7 8 7 7 7 7 7 7 8 9 9 9 9 9 9 9 10 10 11
6 6 6 6 6 5 5 4 5 5 5 5 5 6 6 6 6 6 6 6 6 7 7 6 6 7 7 7 7 7 8 8 8 8 8 8 8 8 9 9 9 9 9 9 10 10 10 10 11
8 7 7 6 6 6 6 6 6 6 6 6 6 6 7 7 7 7 7 8 8 8 8 8 7 7 7 8 8 8 8 9 9 9 9 9 9 8 9 9 9 9 9 9 10 9 9 10 11
9 9 8 8 8 8 7 7 7 7 7 6 6 5 6 7 7 7 7 8 9 9 9 9 9 9 8 9 9 9 9 9 10 10 10 10 10 9 9 10 9 9 9 9 9 9 9 10 10
9 9 9 10 10 10 9 9 9 8 8 7 6 6 6 7 8 8 9 9 10 10 11 10 10 10 10 10 10 10 10 11 11 11 11 10 10 10 10 10 10 9 9 9 9 9 9 9 9
10 10 10 11 11 11 11 11 10 9 9 8 7 7 7 8 9 10 10 10 11 11 11 11 11 12 12 12 12 11 12 12 12 12 11 11 11 10 11 11 10 10 10 10 10 9 9 10 10
10 10 11 12 12 12 12 12 10 9 10 9 9 9 9 9 10 11 12 12 12 12 12 13 12 13 13 13 13 13 13 13 13 13 13 12 12 12 12 11 11 11 11 11 11 11 10 11 11
10 11 13 13 13 13 12 13 11 10 9 10 10 11 11 11 12 12 13 13 13 13 14 14 14 14 14 15 15 14 14 14 14 13 14 13 13 13 13 13 13 13 12 12 13 12 12 12 12
11 12 13 13 14 14 14 14 12 11 11 11 12 13 13 13 13 14 14 15 15 15 15 15 15 16 16 16 16 16 16 15 14 14 14 14 14 14 14 14 14 14 14 14 14 13 14 14 13
13 14 14 14 15 16 16 16 14 14 13 13 13 14 15 15 15 16 16 16 16 17 17 17 17 17 17 17 17 17 16 16 16 16 16 16 16 16 16 15 15 15 15 15 15 15 15 15 15
13 15 15 16 17 17 18 18 17 16 16 16 15 15 16 16 17 17 18 17 18 17 17 17 18 19 18 17 17 17 17 17 17 17 17 16 16 16 16 17 17 16 16 17 17 16 16 16 16
14 14 16 18 19 19 19 19 18 18 18 18 18 18 18 18 19 19 19 19 19 19 19 19 19 19 19 19 18 17 17 17 17 17 17 17 17 17 18 18 17 17 17 17 17 17 17 17 17
15 15 16 18 20 20 21 21 19 19 19 19 19 19 19 19 20 20 20 20 20 20 20 20 20 20 20 20 20 19 18 18 18 18 18 18 18 18 18 18 18 18 18 17 17 17 17 18 17
17 17 17 18 20 22 23 22 20 20 20 20 20 20 20 20 20 20 21 21 21 21 21 21 21 21 21 21 20 20 19 19 19 19 19 19 19 18 18 18 19 19 19 19 18 18 19 19 19
Wind_Direction
213 206 200 209 208 213 214 209 207 217 242 260 266 276 284 287 273 265 257 255 264 283 311 310 302 285 280 283 283 290 294 294 293 290 288 287 279 274 266 258 252 247 243 238 238 238 236 234 234
228 217 218 224 218 220 214 211 212 219 245 246 245 251 256 256 260 262 262 264 272 278 291 307 305 295 288 287 284 287 290 292 294 291 288 285 281 277 273 259 249 248 244 240 240 238 237 235 235
236 228 230 233 236 228 226 223 223 239 242 242 247 247 252 252 267 279 281 280 281 280 283 291 296 294 288 287 289 291 288 288 289 291 288 283 283 280 278 266 251 244 244 242 243 241 240 239 237
241 236 239 237 233 231 236 241 248 259 259 262 266 268 265 266 276 281 286 288 286 284 286 289 295 292 291 288 287 292 292 290 290 289 287 286 283 280 275 263 251 250 247 246 247 246 245 242 239
248 239 240 241 240 238 235 240 255 259 269 272 266 269 271 270 269 275 284 289 291 292 293 292 295 294 289 288 289 289 290 287 287 290 288 285 283 278 271 267 261 257 253 250 249 246 247 244 241
258 248 242 243 246 252 244 244 248 253 263 271 267 270 273 269 272 276 282 287 293 295 294 292 289 291 290 288 288 289 288 287 286 287 290 286 284 281 273 267 263 259 254 252 249 246 245 244 242
248 254 254 252 253 257 260 259 262 263 270 274 281 284 277 280 278 278 285 289 292 291 289 289 286 286 288 288 290 292 290 289 289 290 289 288 283 279 272 268 264 262 255 246 247 246 246 244 240
250 251 254 255 255 256 259 264 272 271 276 283 290 290 295 298 291 285 285 293 300 295 292 287 287 288 288 289 289 292 295 292 290 291 289 288 285 279 278 271 268 265 260 256 255 254 247 246 243
246 247 244 244 235 252 274 278 281 281 287 289 300 303 293 290 289 292 295 299 302 299 293 291 291 293 293 292 291 293 297 295 291 289 288 284 281 279 278 276 276 272 265 261 258 252 243 241 241
241 242 235 228 225 250 283 287 302 308 296 294 301 313 305 304 301 299 300 296 296 295 292 295 300 302 301 296 293 293 298 300 297 292 288 284 281 282 280 276 276 272 269 266 262 258 249 243 241
237 243 238 225 227 250 295 313 331 320 299 308 306 306 334 334 327 317 311 309 309 307 300 296 297 297 296 295 293 294 299 300 299 295 291 289 285 285 283 278 273 268 269 266 265 263 254 243 239
236 240 234 239 238 261 330 348 347 323 316 317 314 317 324 336 337 337 336 318 311 317 313 302 297 301 301 298 297 301 304 303 301 300 295 292 291 286 283 279 278 272 271 269 265 257 248 244 241
231 238 248 244 243 258 308 323 321 303 306 314 320 317 311 313 323 323 324 325 327 326 316 312 309 309 299 300 305 310 312 310 308 307 304 300 294 287 283 281 277 276 272 270 265 253 246 245 244
236 237 241 243 252 258 268 288 301 299 293 299 308 313 319 321 326 328 326 329 327 327 320 333 331 326 309 305 305 315 319 317 310 306 306 302 297 290 287 281 278 274 272 269 266 257 249 246 246
235 238 236 237 249 262 267 275 286 287 291 298 302 306 312 315 319 320 318 317 321 322 321 329 331 329 324 315 308 309 311 314 314 312 306 302 298 295 290 286 278 271 270 266 262 256 246 247 246
244 243 246 253 248 258 262 267 280 286 290 293 293 294 295 298 303 304 305 308 313 313 316 321 322 322 322 313 306 307 311 312 314 312 309 307 301 300 297 290 283 274 271 270 264 256 251 249 249
249 252 253 256 255 256 257 265 275 281 280 279 282 287 291 293 295 298 299 301 303 305 311 312 311 313 317 313 307 310 311 311 310 308 306 305 305 302 298 292 288 282 275 271 264 260 257 254 253
258 259 259 263 260 256 259 264 266 274 277 284 284 286 288 290 291 293 297 299 297 300 305 304 303 305 307 308 307 306 309 312 309 305 305 306 304 302 298 299 297 290 282 274 267 265 261 258 255
261 264 266 265 264 265 259 255 267 273 277 279 281 283 287 292 294 293 295 297 300 303 303 301 300 301 302 305 306 305 304 305 305 304 305 305 304 302 298 297 297 293 289 281 272 270 266 262 260
259 262 267 269 267 268 269 267 270 273 276 280 283 286 286 288 294 297 297 298 299 301 300 298 296 297 298 301 304 303 301 300 299 299 299 299 300 300 299 297 292 289 289 286 277 276 275 271 265
261 265 266 264 264 268 273 274 274 276 277 277 281 284 289 289 291 294 297 298 297 298 297 296 293 294 295 297 298 298 297 298 297 295 295 296 295 295 294 294 291 289 286 282 279 278 275 269 267
263 264 264 265 266 267 271 273 271 272 275 277 278 279 284 287 288 291 294 297 296 295 294 293 291 292 293 295 295 295 296 298 297 294 294 293 291 291 292 291 288 287 285 280 279 277 273 269 267
263 265 265 267 268 269 269 271 270 264 267 271 275 278 279 281 285 288 289 290 292 292 291 289 289 289 290 292 292 293 294 296 296 294 293 291 289 288 287 287 283 282 283 279 278 278 274 272 269
260 261 263 265 267 269 274 273 268 265 268 271 276 277 278 280 285 289 290 288 286 288 289 289 287 287 287 288 290 291 292 292 293 293 291 289 288 287 285 285 282 279 279 278 278 277 273 272 269
261 262 262 263 265 270 275 274 275 272 271 272 275 277 279 280 282 285 287 288 287 286 287 288 287 285 285 286 286 287 289 289 289 290 289 289 288 286 284 284 283 280 277 276 276 276 274 272 269
261 263 263 266 268 272 272 273 276 276 275 274 279 281 279 278 279 280 283 285 286 285 285 285 285 285 284 284 284 284 285 286 285 285 286 287 286 284 282 282 282 280 277 277 275 274 272 270 268
258 262 265 267 270 270 270 274 277 279 277 277 279 283 280 277 278 279 281 282 283 284 284 285 286 286 284 284 284 283 282 282 283 283 284 284 284 283 280 278 276 276 274 274 274 274 272 271 268
263 263 265 266 269 272 274 276 280 281 278 279 280 282 280 279 280 282 282 282 282 283 285 285 285 285 285 285 282 282 281 280 280 282 283 283 282 281 280 276 274 273 274 272 271 271 270 269 266
262 263 267 267 268 271 275 277 282 281 280 279 279 281 280 281 283 283 283 284 282 282 284 284 283 282 282 282 280 279 280 280 281 281 281 281 282 281 280 277 274 272 273 271 269 269 270 267 264
269 270 270 270 272 274 278 278 279 279 281 282 281 281 282 283 283 283 283 282 282 282 283 282 281 280 280 280 279 278 277 279 281 281 282 281 281 280 279 277 274 272 270 269 268 269 269 267 264
Height
5867 5867 5868 5868 5869 5868 5868 5868 5868 5868 5868 5868 5868 5868 5867 5868 5869 5871 5868 5866 5866 5866 5866 5865 5865 5865 5865 5865 5865 5865 5864 5864 5863 5863 5862 5861 5861 5860 5858 5858 5858 5859 5860 5861 5861 5862 5863 5863 5864
5866 5867 5868 5868 5867 5867 5867 5867 5867 5867 5867 5867 5867 5867 5867 5867 5867 5866 5866 5865 5865 5865 5865 5865 5865 5864 5864 5864 5864 5864 5863 5863 5862 5862 5861 5860 5859 5857 5854 5853 5855 5857 5858 5859 5860 5861 5861 5862 5862
5865 5866 5867 5867 5866 5867 5867 5866 5866 5866 5866 5866 5866 5866 5866 5866 5865 5865 5865 5864 5864 5864 5864 5864 5863 5863 5863 5863 5863 5863 5862 5862 5861 5860 5860 5859 5857 5855 5853 5851 5853 5855 5857 5858 5858 5859 5860 5860 5861
5865 5866 5866 5866 5865 5866 5865 5865 5865 5865 5865 5864 5865 5865 5865 5865 5865 5864 5863 5863 5863 5862 5862 5862 5862 5862 5862 5862 5862 5861 5861 5860 5860 5859 5858 5857 5856 5855 5854 5853 5853 5854 5855 5856 5857 5857 5858 5858 5859
5864 5865 5865 5865 5864 5865 5864 5864 5864 5864 5864 5863 5863 5863 5863 5863 5863 5862 5862 5862 5861 5861 5861 5861 5861 5861 5861 5860 5860 5860 5860 5859 5858 5858 5857 5856 5855 5854 5854 5853 5853 5854 5854 5854 5855 5855 5856 5856 5857
5864 5864 5864 5864 5864 5863 5863 5863 5863 5863 5863 5862 5862 5862 5862 5862 5862 5861 5861 5861 5860 5860 5859 5859 5859 5859 5859 5859 5859 5858 5858 5857 5857 5856 5855 5855 5854 5853 5853 5852 5852 5852 5852 5852 5852 5853 5853 5854 5854
5864 5863 5863 5863 5863 5863 5862 5862 5862 5862 5862 5862 5861 5861 5861 5861 5860 5860 5859 5859 5859 5858 5858 5858 5858 5857 5857 5857 5857 5856 5856 5855 5855 5854 5854 5853 5852 5852 5851 5851 5850 5850 5850 5850 5850 5851 5852 5852 5852
5862 5863 5862 5862 5862 5862 5862 5861 5861 5861 5861 5861 5861 5860 5860 5860 5859 5859 5858 5858 5857 5857 5856 5856 5856 5856 5856 5855 5855 5854 5854 5854 5853 5853 5852 5851 5851 5850 5849 5849 5848 5848 5848 5847 5848 5849 5849 5850 5850
5862 5863 5861 5861 5861 5861 5861 5860 5860 5860 5860 5860 5860 5859 5859 5858 5858 5858 5857 5857 5856 5856 5855 5855 5855 5854 5854 5854 5853 5853 5852 5852 5851 5851 5850 5849 5849 5848 5847 5847 5846 5846 5846 5846 5846 5846 5846 5847 5847
5861 5861 5861 5861 5861 5860 5860 5860 5860 5859 5859 5859 5859 5858 5858 5857 5857 5856 5856 5856 5855 5855 5854 5854 5853 5853 5852 5852 5852 5851 5851 5850 5849 5849 5848 5848 5847 5846 5845 5845 5844 5844 5843 5843 5843 5843 5843 5844 5845
5860 5860 5860 5859 5859 5859 5859 5859 5859 5859 5859 5859 5858 5857 5856 5856 5856 5855 5855 5855 5854 5854 5853 5853 5852 5851 5851 5851 5850 5850 5849 5848 5848 5847 5846 5846 5845 5844 5844 5843 5843 5842 5841 5841 5840 5840 5840 5840 5841
5859 5859 5859 5859 5859 5859 5859 5859 5858 5858 5858 5858 5857 5856 5856 5855 5855 5854 5854 5853 5853 5853 5852 5852 5851 5850 5849 5849 5848 5848 5847 5847 5846 5845 5844 5844 5843 5842 5841 5841 5840 5840 5839 5838 5837 5837 5836 5836 5838
5858 5858 5858 5858 5858 5858 5858 5858 5858 5857 5857 5856 5856 5855 5855 5854 5854 5853 5853 5852 5852 5852 5851 5850 5850 5849 5848 5847 5847 5846 5846 5845 5844 5843 5842 5841 5841 5840 5839 5839 5838 5838 5837 5836 5835 5834 5834 5834 5836
5857 5857 5857 5857 5857 5857 5857 5857 5857 5856 5855 5855 5855 5855 5854 5854 5853 5852 5852 5851 5851 5850 5850 5849 5848 5848 5847 5846 5845 5845 5844 5843 5842 5841 5840 5840 5839 5838 5837 5837 5836 5836 5835 5834 5833 5833 5833 5833 5834
5856 5856 5856 5856 5856 5856 5856 5856 5856 5855 5854 5854 5854 5853 5853 5852 5852 5852 5851 5850 5850 5849 5848 5848 5847 5846 5846 5845 5844 5843 5843 5841 5840 5839 5838 5838 5837 5836 5836 5835 5834 5833 5833 5832 5832 5831 5832 5832 5833
5855 5855 5855 5855 5854 5854 5856 5855 5854 5853 5853 5853 5852 5852 5852 5851 5851 5850 5850 5849 5849 5848 5847 5846 5846 5845 5844 5843 5842 5842 5841 5840 5839 5838 5837 5836 5835 5834 5834 5833 5832 5831 5831 5830 5830 5830 5830 5830 5831
5853 5854 5853 5853 5853 5853 5853 5853 5853 5852 5852 5851 5851 5851 5850 5850 5849 5849 5848 5848 5847 5846 5846 5845 5844 5843 5843 5842 5841 5840 5839 5838 5837 5836 5835 5834 5833 5833 5832 5831 5830 5829 5829 5828 5828 5828 5828 5828 5828
5852 5852 5852 5851 5851 5852 5851 5851 5851 5850 5850 5850 5850 5849 5849 5848 5848 5847 5846 5846 5845 5845 5844 5843 5843 5842 5841 5840 5839 5838 5837 5836 5835 5834 5833 5832 5831 5831 5830 5829 5828 5827 5826 5826 5826 5826 5826 5826 5826
5850 5850 5849 5849 5849 5849 5849 5849 5849 5848 5848 5848 5848 5847 5847 5846 5846 5845 5844 5844 5843 5842 5842 5841 5841 5840 5839 5838 5837 5836 5835 5834 5833 5832 5831 5830 5829 5828 5828 5827 5826 5825 5824 5823 5823 5823 5823 5823 5823
5847 5847 5847 5847 5847 5847 5847 5847 5847 5846 5846 5846 5846 5845 5845 5844 5844 5843 5842 5842 5841 5840 5839 5838 5838 5837 5837 5836 5835 5834 5833 5832 5831 5830 5829 5828 5827 5826 5825 5824 5823 5822 5822 5821 5821 5821 5820 5820 5820
5845 5845 5845 5845 5844 5844 5844 5845 5844 5844 5844 5844 5844 5843 5842 5842 5841 5840 5840 5839 5838 5837 5836 5836 5835 5834 5834 5833 5832 5831 5830 5829 5828 5827 5826 5825 5824 5823 5822 5821 5820 5820 5819 5819 5818 5818 5818 5818 5818
5842 5843 5842 5842 5842 5842 5842 5842 5842 5841 5841 5841 5841 5841 5840 5839 5838 5838 5837 5836 5835 5834 5833 5832 5832 5831 5830 5830 5829 5828 5827 5826 5825 5824 5823 5823 5822 5821 5820 5819 5818 5817 5817 5816 5816 5816 5815 5815 5815
5840 5840 5840 5839 5839 5839 5838 5839 5840 5838 5838 5838 5838 5837 5837 5836 5835 5835 5834 5833 5832 5831 5830 5829 5829 5828 5827 5826 5826 5825 5824 5823 5822 5821 5820 5819 5818 5818 5817 5816 5815 5814 5814 5814 5813 5813 5813 5812 5812
5837 5837 5837 5836 5836 5836 5835 5835 5836 5835 5835 5834 5834 5834 5833 5832 5832 5831 5830 5830 5829 5828 5827 5826 5825 5824 5823 5823 5822 5821 5820 5819 5818 5817 5816 5816 5815 5814 5813 5813 5812 5811 5811 5810 5810 5810 5809 5809 5809
5834 5834 5834 5833 5832 5832 5832 5831 5832 5832 5831 5831 5830 5829 5829 5828 5828 5827 5826 5825 5824 5823 5823 5822 5821 5820 5819 5818 5818 5817 5816 5815 5814 5813 5812 5812 5811 5810 5810 5809 5808 5808 5807 5807 5806 5806 5806 5805 5805
5830 5831 5831 5830 5829 5828 5828 5827 5828 5827 5827 5826 5826 5825 5824 5823 5823 5822 5821 5820 5820 5819 5818 5817 5816 5815 5815 5814 5813 5812 5812 5811 5810 5809 5808 5807 5807 5806 5805 5805 5804 5803 5803 5803 5802 5802 5802 5801 5801
5826 5826 5826 5826 5825 5824 5823 5823 5823 5823 5822 5822 5821 5820 5820 5819 5818 5817 5816 5816 5815 5814 5813 5812 5811 5810 5809 5809 5808 5807 5807 5806 5805 5804 5803 5803 5802 5801 5800 5800 5799 5799 5799 5798 5798 5798 5797 5797 5797
5822 5822 5822 5821 5820 5819 5819 5818 5819 5818 5817 5817 5816 5815 5815 5814 5813 5812 5811 5810 5810 5809 5808 5807 5806 5805 5804 5803 5803 5802 5801 5801 5800 5799 5798 5797 5797 5796 5795 5794 5794 5794 5793 5793 5793 5793 5792 5792 5792
5818 5818 5816 5816 5815 5815 5813 5816 5814 5813 5812 5812 5811 5810 5809 5808 5807 5806 5805 5804 5804 5803 5802 5801 5800 5800 5799 5798 5797 5796 5796 5795 5794 5794 5793 5792 5791 5790 5790 5789 5789 5788 5788 5788 5787 5787 5787 5787 5787
5813 5812 5812 5811 5810 5809 5808 5812 5809 5807 5806 5806 5805 5804 5803 5802 5801 5800 5799 5798 5798 5797 5796 5795 5795 5794 5793 5792 5791 5791 5790 5789 5789 5788 5786 5786 5785 5784 5784 5783 5783 5782 5782 5782 5782 5782 5781 5781 5781